• în România
  • Lista ţărilor
  • Pe 7 zile
  • Temperatura apei
  • Hartă satelitară
  • Meteo pe hartă
  • Widget-uri
  • user-avatar
    Intrare

    Meteo pe oră la Eisenstadt

    Astăzi, 21 August, Luni

    Timp Temperatura Precipitaţii Vânt Presiune Umiditate
    00:00 +13°C° 0 mm 3 m/s 727 mmHg 69%
    01:00 +12°C° 0 mm 3 m/s 727 mmHg 70%
    02:00 +12°C° 0 mm 3 m/s 727 mmHg 71%
    03:00 +11°C° 0 mm 3 m/s 727 mmHg 72%
    04:00 +11°C° 0 mm 3 m/s 727 mmHg 72%
    05:00 +12°C° 0 mm 3 m/s 727 mmHg 68%
    06:00 +13°C° 0 mm 3 m/s 727 mmHg 63%
    07:00 +14°C° 0 mm 4 m/s 727 mmHg 59%
    08:00 +17°C° 0 mm 4 m/s 727 mmHg 53%
    09:00 +17°C° 0 mm 5 m/s 727 mmHg 48%
    10:00 +20°C° 0 mm 5 m/s 727 mmHg 42%
    11:00 +21°C° 0 mm 5 m/s 727 mmHg 40%
    12:00 +21°C° 0 mm 5 m/s 726 mmHg 39%
    13:00 +22°C° 0 mm 5 m/s 726 mmHg 37%
    14:00 +22°C° 0 mm 5 m/s 726 mmHg 38%
    15:00 +22°C° 0 mm 5 m/s 726 mmHg 38%
    16:00 +22°C° 0 mm 5 m/s 726 mmHg 39%
    17:00 +20°C° 0 mm 4 m/s 726 mmHg 45%
    18:00 +18°C° 0 mm 3 m/s 726 mmHg 51%
    19:00 +17°C° 0 mm 3 m/s 726 mmHg 57%
    20:00 +16°C° 0 mm 3 m/s 726 mmHg 61%
    21:00 +15°C° 0 mm 2 m/s 726 mmHg 65%
    22:00 +14°C° 0 mm 2 m/s 726 mmHg 69%
    23:00 +13°C° 0 mm 2 m/s 726 mmHg 70%

    Mâine, 22 August, Marţi

    Timp Temperatura Precipitaţii Vânt Presiune Umiditate
    00:00 +13°C° 0 mm 2 m/s 726 mmHg 72%
    01:00 +12°C° 0 mm 2 m/s 726 mmHg 74%
    02:00 +12°C° 0 mm 2 m/s 726 mmHg 75%
    03:00 +12°C° 0 mm 2 m/s 726 mmHg 77%
    04:00 +12°C° 0 mm 2 m/s 726 mmHg 78%
    05:00 +13°C° 0 mm 2 m/s 726 mmHg 73%
    06:00 +14°C° 0 mm 2 m/s 727 mmHg 68%
    07:00 +15°C° 0 mm 2 m/s 727 mmHg 64%
    08:00 +17°C° 0 mm 2 m/s 727 mmHg 56%
    09:00 +20°C° 0 mm 2 m/s 727 mmHg 49%
    10:00 +22°C° 0 mm 3 m/s 727 mmHg 41%
    11:00 +24°C° 0 mm 3 m/s 726 mmHg 38%
    12:00 +25°C° 0 mm 2 m/s 726 mmHg 35%
    13:00 +26°C° 0 mm 2 m/s 725 mmHg 32%
    14:00 +25°C° 0 mm 2 m/s 725 mmHg 32%
    15:00 +25°C° 0 mm 2 m/s 725 mmHg 32%
    16:00 +25°C° 0 mm 2 m/s 724 mmHg 31%
    17:00 +23°C° 0 mm 2 m/s 724 mmHg 38%
    18:00 +20°C° 0 mm 2 m/s 724 mmHg 44%
    19:00 +18°C° 0 mm 2 m/s 724 mmHg 51%
    20:00 +17°C° 0 mm 2 m/s 724 mmHg 54%
    21:00 +16°C° 0 mm 2 m/s 724 mmHg 57%
    22:00 +15°C° 0 mm 2 m/s 724 mmHg 60%
    23:00 +15°C° 0 mm 2 m/s 724 mmHg 61%

    Poimâine, 23 August, Miercuri

    Timp Temperatura Precipitaţii Vânt Presiune Umiditate
    00:00 +15°C° 0 mm 1 m/s 724 mmHg 62%
    01:00 +15°C° 0 mm 1 m/s 724 mmHg 63%
    02:00 +14°C° 0 mm 1 m/s 724 mmHg 67%
    03:00 +13°C° 0 mm 1 m/s 724 mmHg 71%
    04:00 +12°C° 0 mm 1 m/s 724 mmHg 74%
    05:00 +13°C° 0 mm 2 m/s 725 mmHg 71%
    06:00 +14°C° 0 mm 2 m/s 725 mmHg 69%
    07:00 +15°C° 0 mm 2 m/s 725 mmHg 66%
    08:00 +17°C° 0 mm 2 m/s 725 mmHg 60%
    09:00 +19°C° 0 mm 2 m/s 726 mmHg 53%
    10:00 +21°C° 0 mm 2 m/s 726 mmHg 47%
    11:00 +23°C° 0 mm 2 m/s 726 mmHg 44%
    12:00 +24°C° 0 mm 2 m/s 725 mmHg 41%
    13:00 +25°C° 0 mm 1 m/s 725 mmHg 39%
    14:00 +25°C° 0 mm 1 m/s 725 mmHg 39%
    15:00 +25°C° 0 mm 1 m/s 725 mmHg 39%
    16:00 +25°C° 0 mm 1 m/s 724 mmHg 39%
    17:00 +23°C° 0 mm 1 m/s 724 mmHg 44%
    18:00 +21°C° 0 mm 1 m/s 724 mmHg 50%
    19:00 +19°C° 0 mm 1 m/s 724 mmHg 55%
    20:00 +19°C° 0 mm 1 m/s 724 mmHg 56%
    21:00 +18°C° 0 mm 1 m/s 724 mmHg 57%
    22:00 +16°C° 0 mm 1 m/s 725 mmHg 58%
    23:00 +15°C° 0 mm 1 m/s 724 mmHg 59%

    24 August, Joi

    Timp Temperatura Precipitaţii Vânt Presiune Umiditate
    00:00 +15°C° 0 mm 1 m/s 724 mmHg 59%
    01:00 +14°C° 0 mm 1 m/s 724 mmHg 60%
    02:00 +14°C° 0 mm 1 m/s 724 mmHg 60%
    03:00 +14°C° 0 mm 1 m/s 724 mmHg 60%
    04:00 +13°C° 0 mm 0 m/s 724 mmHg 61%
    05:00 +14°C° 0 mm 0 m/s 724 mmHg 58%
    06:00 +15°C° 0 mm 0 m/s 725 mmHg 56%
    07:00 +16°C° 0 mm 0 m/s 725 mmHg 53%
    08:00 +21°C° 0 mm 1 m/s 725 mmHg 49%
    09:00 +23°C° 0 mm 1 m/s 725 mmHg 44%
    10:00 +26°C° 0 mm 1 m/s 725 mmHg 39%
    11:00 +27°C° 0 mm 1 m/s 725 mmHg 37%
    12:00 +28°C° 0 mm 1 m/s 725 mmHg 35%
    13:00 +30°C° 0 mm 1 m/s 725 mmHg 33%
    14:00 +30°C° 0 mm 1 m/s 725 mmHg 34%
    15:00 +30°C° 0 mm 1 m/s 725 mmHg 34%
    16:00 +30°C° 0 mm 1 m/s 724 mmHg 34%
    17:00 +28°C° 0 mm 1 m/s 724 mmHg 40%
    18:00 +26°C° 0 mm 1 m/s 724 mmHg 46%
    19:00 +23°C° 0 mm 1 m/s 724 mmHg 52%
    20:00 +23°C° 0 mm 1 m/s 724 mmHg 54%
    21:00 +22°C° 0 mm 1 m/s 724 mmHg 57%
    22:00 +21°C° 0 mm 1 m/s 724 mmHg 59%
    23:00 +20°C° 0 mm 1 m/s 724 mmHg 60%

    25 August, Vineri

    Timp Temperatura Precipitaţii Vânt Presiune Umiditate
    00:00 +20°C° 0 mm 1 m/s 724 mmHg 62%
    01:00 +20°C° 0 mm 1 m/s 724 mmHg 63%
    02:00 +19°C° 0 mm 1 m/s 724 mmHg 65%
    03:00 +19°C° 0 mm 1 m/s 724 mmHg 66%
    04:00 +19°C° 0 mm 1 m/s 724 mmHg 68%
    05:00 +20°C° 0 mm 1 m/s 724 mmHg 65%
    06:00 +21°C° 0 mm 1 m/s 725 mmHg 63%
    07:00 +22°C° 0 mm 1 m/s 725 mmHg 60%
    08:00 +24°C° 0 mm 2 m/s 725 mmHg 53%
    09:00 +27°C° 0 mm 2 m/s 725 mmHg 46%
    10:00 +29°C° 0 mm 3 m/s 725 mmHg 39%
    11:00 +30°C° 0 mm 3 m/s 725 mmHg 36%
    12:00 +33°C° 0 mm 4 m/s 725 mmHg 32%
    13:00 +34°C° 0 mm 4 m/s 725 mmHg 29%
    14:00 +34°C° 0 mm 4 m/s 725 mmHg 29%
    15:00 +34°C° 0 mm 4 m/s 724 mmHg 29%
    16:00 +34°C° 0 mm 4 m/s 724 mmHg 30%
    17:00 +30°C° 0 mm 3 m/s 724 mmHg 35%
    18:00 +28°C° 0 mm 3 m/s 724 mmHg 41%
    19:00 +26°C° 0 mm 2 m/s 723 mmHg 47%
    20:00 +25°C° 0 mm 2 m/s 724 mmHg 49%
    21:00 +24°C° 0 mm 2 m/s 724 mmHg 52%
    22:00 +23°C° 0 mm 2 m/s 724 mmHg 54%
    23:00 +21°C° 0 mm 2 m/s 724 mmHg 56%

    26 August, Sâmbătă

    Timp Temperatura Precipitaţii Vânt Presiune Umiditate
    00:00 +21°C° 0 mm 2 m/s 724 mmHg 57%
    01:00 +20°C° 0 mm 2 m/s 724 mmHg 59%
    02:00 +20°C° 0 mm 2 m/s 724 mmHg 60%
    03:00 +19°C° 0 mm 2 m/s 724 mmHg 62%
    04:00 +19°C° 0 mm 2 m/s 724 mmHg 63%
    05:00 +20°C° 0 mm 2 m/s 724 mmHg 60%
    06:00 +21°C° 0 mm 2 m/s 724 mmHg 58%
    07:00 +23°C° 0 mm 2 m/s 725 mmHg 55%
    08:00 +25°C° 0 mm 2 m/s 725 mmHg 49%
    09:00 +28°C° 0 mm 3 m/s 725 mmHg 42%
    10:00 +30°C° 0 mm 3 m/s 725 mmHg 35%
    11:00 +32°C° 0 mm 4 m/s 725 mmHg 33%
    12:00 +33°C° 0 mm 4 m/s 724 mmHg 31%
    13:00 +34°C° 0 mm 5 m/s 724 mmHg 28%
    14:00 +34°C° 0 mm 4 m/s 724 mmHg 29%
    15:00 +34°C° 0 mm 4 m/s 724 mmHg 30%
    16:00 +34°C° 0 mm 4 m/s 723 mmHg 31%
    17:00 +31°C° 0 mm 3 m/s 723 mmHg 37%
    18:00 +29°C° 0 mm 3 m/s 723 mmHg 42%
    19:00 +27°C° 0 mm 2 m/s 723 mmHg 48%
    20:00 +26°C° 0 mm 2 m/s 723 mmHg 50%
    21:00 +25°C° 0 mm 2 m/s 723 mmHg 52%
    22:00 +24°C° 0 mm 2 m/s 723 mmHg 54%
    23:00 +23°C° 0 mm 2 m/s 723 mmHg 55%
    Arată mai mult